Location: Borojevi?i
(45.0486°N, 16.2297°E)
Time: 06:42:12
(UTC+00:00)

Cosmos 1816 Rocket - Pass Details

Date: 08 August 2020
Orbit: 950 x 1000 km, 82.9° (Epoch: 26 September)

Event Time Altitude Azimuth Distance (km) Brightness Sun altitude
Rises 21:32:19 0° 354° (N) 3,707 8.7 -25.9°
Reaches altitude 10° 21:34:54 10° 357° (N) 2,748 7.7 -26.1°
Maximum altitude 21:41:10 64° 79° (E) 1,071 4.6 -26.5°
Enters shadow 21:41:53 60° 113° (ESE) 1,109 4.5 -26.6°
